Angola Tri-State Steuben Coun, IN

10:19 AM EDT on April 23, 2018 (GMT -0400)
Tri-State Steuben County

Weather History for KANQ - August, 2014

Change the Weather History Date:

Saturday, August 2, 2014

  Actual Average (KFWA) Record (KFWA)
Temperature  
Mean Temperature 70 °F -  
Max Temperature 84 °F 83 °F 98 °F (1964)
Min Temperature 57 °F 62 °F 47 °F (1965)
Cooling Degree Days 6    
Growing Degree Days 20 (Base 50)    
Moisture  
Dew Point 56 °F    
Average Humidity 62    
Maximum Humidity 100    
Minimum Humidity 39    
Precipitation  
Precipitation 0.00 in - - ()
Sea Level Pressure  
Sea Level Pressure 30.12 in    
Wind  
Wind Speed 2 mph (NE)    
Max Wind Speed 8 mph    
Max Gust Speed -    
Visibility 8 miles    
Events      
Averages and records for this station are not official NWS values.
T = Trace of Precipitation, MM = Missing Value Source: NWS Daily Summary

Daily Weather History Graph

Daily Weather History Graph

Search for Another Location

Airport or City:

Astronomy

Aug. 02, 2014 Rise Set
Actual Time 6:35 AM EDT 8:56 PM EDT
Civil Twilight 6:04 AM EDT 9:27 PM EDT
Nautical Twilight 5:25 AM EDT 10:06 PM EDT
Astronomical Twilight 4:42 AM EDT 10:49 PM EDT
Moon 1:02 PM EDT (8/2) No Moon Set
Length of Visible Light 15h 23m
Length of Day
14h 21m
Waxing Crescent, 36% of the Moon is Illuminated
Aug 2
Waxing Crescent
Aug 3
First Quarter
Aug 10
Full
Aug 17
Last Quarter
Aug 25
New

Hourly Weather History & Observations

Time (EDT) Temp. Heat Index Dew Point Humidity Pressure Visibility Wind Dir Wind Speed Gust Speed Precip Events Conditions
12:15 AM 62.6 °F - 62.6 °F 100% 30.11 in 8.0 mi Calm Calm - N/A   Clear
12:35 AM 60.8 °F - 59.0 °F 94% 30.11 in 5.0 mi Calm Calm - N/A   Clear
12:55 AM 62.6 °F - 53.6 °F 72% 30.11 in 3.0 mi Calm Calm - N/A   Clear
1:15 AM 60.8 °F - 50.0 °F 68% 30.11 in 0.2 mi Calm Calm - N/A   Mostly Cloudy
1:55 AM 60.8 °F - 50.0 °F 68% 30.12 in 0.8 mi Calm Calm - N/A   Mostly Cloudy
2:15 AM 59.0 °F - 48.2 °F 67% 30.12 in 2.5 mi Calm Calm - N/A   Clear
2:35 AM 60.8 °F - 50.0 °F 68% 30.11 in 5.0 mi Calm Calm - N/A   Clear
3:15 AM 60.8 °F - 51.8 °F 72% 30.11 in 4.0 mi Calm Calm - N/A   Clear
3:35 AM 62.6 °F - 51.8 °F 68% 30.11 in 7.0 mi Calm Calm - N/A   Clear
3:55 AM 60.8 °F - 50.0 °F 68% 30.11 in 2.5 mi Calm Calm - N/A   Clear
4:15 AM 62.6 °F - 51.8 °F 68% 30.11 in 6.0 mi Calm Calm - N/A   Clear
4:35 AM 60.8 °F - 48.2 °F 63% 30.10 in 9.0 mi Calm Calm - N/A   Clear
4:55 AM 62.6 °F - 51.8 °F 68% 30.10 in 7.0 mi Calm Calm - N/A   Clear
5:35 AM 62.6 °F - 51.8 °F 68% 30.10 in 7.0 mi Calm Calm - N/A   Clear
5:55 AM 59.0 °F - 48.2 °F 67% 30.11 in 5.0 mi Calm Calm - N/A   Clear
6:35 AM 60.8 °F - 50.0 °F 68% 30.12 in 2.0 mi Calm Calm - N/A   Mostly Cloudy
6:55 AM 60.8 °F - 48.2 °F 63% 30.12 in 1.2 mi Calm Calm - N/A   Mostly Cloudy
7:15 AM 57.2 °F - 46.4 °F 67% 30.13 in 0.2 mi Calm Calm - N/A   Overcast
7:55 AM 57.2 °F - 48.2 °F 72% 30.14 in 1.8 mi Calm Calm - N/A   Mostly Cloudy
8:15 AM 60.8 °F - 50.0 °F 68% 30.15 in 5.0 mi Calm Calm - N/A   Clear
8:35 AM 62.6 °F - 51.8 °F 68% 30.15 in 4.0 mi Calm Calm - N/A   Clear
8:55 AM 62.6 °F - 53.6 °F 72% 30.16 in 4.0 mi Calm Calm - N/A   Clear
9:15 AM 64.4 °F - 62.6 °F 94% 30.16 in 6.0 mi SSE 3.5 mph - N/A   Clear
9:35 AM 66.2 °F - 57.2 °F 73% 30.16 in 10.0 mi Calm Calm - N/A   Mostly Cloudy
9:55 AM 68.0 °F - 59.0 °F 73% 30.16 in 10.0 mi NNE 3.5 mph - N/A   Scattered Clouds
10:15 AM 69.8 °F - 60.8 °F 73% 30.16 in 10.0 mi NNE 5.8 mph - N/A   Scattered Clouds
10:35 AM 69.8 °F - 62.6 °F 78% 30.16 in 10.0 mi NNE 3.5 mph - N/A   Scattered Clouds
10:55 AM 73.4 °F - 62.6 °F 69% 30.15 in 10.0 mi Variable 4.6 mph - N/A   Partly Cloudy
11:15 AM 73.4 °F - 59.0 °F 61% 30.15 in 10.0 mi NNE 3.5 mph - N/A   Partly Cloudy
11:35 AM 75.2 °F - 57.2 °F 53% 30.15 in 10.0 mi Variable 4.6 mph - N/A   Clear
11:55 AM 73.4 °F - 57.2 °F 57% 30.16 in 10.0 mi NE 4.6 mph - N/A   Partly Cloudy
12:15 PM 77.0 °F - 57.2 °F 50% 30.15 in 10.0 mi ENE 5.8 mph - N/A   Clear
12:35 PM 77.0 °F - 59.0 °F 54% 30.15 in 10.0 mi NNE 4.6 mph - N/A   Clear
12:55 PM 78.8 °F - 57.2 °F 47% 30.15 in 10.0 mi Calm Calm - N/A   Clear
1:15 PM 78.8 °F - 57.2 °F 47% 30.15 in 10.0 mi North 4.6 mph - N/A   Clear
1:35 PM 78.8 °F - 57.2 °F 47% 30.14 in 10.0 mi ENE 6.9 mph - N/A   Clear
1:55 PM 80.6 °F 81.1 °F 59.0 °F 48% 30.14 in 10.0 mi Variable 4.6 mph - N/A   Clear
2:15 PM 80.6 °F 80.8 °F 57.2 °F 45% 30.14 in 10.0 mi North 5.8 mph - N/A   Clear
2:55 PM 80.6 °F 80.8 °F 57.2 °F 45% 30.13 in 10.0 mi East 8.1 mph - N/A   Clear
3:15 PM 82.4 °F 82.0 °F 57.2 °F 42% 30.13 in 10.0 mi Variable 5.8 mph - N/A   Clear
3:55 PM 82.4 °F 82.5 °F 59.0 °F 45% 30.12 in 10.0 mi Variable 6.9 mph - N/A   Clear
4:15 PM 82.4 °F 82.0 °F 57.2 °F 42% 30.12 in 10.0 mi ENE 6.9 mph - N/A   Clear
4:35 PM 80.6 °F 80.8 °F 57.2 °F 45% 30.11 in 10.0 mi NE 4.6 mph - N/A   Partly Cloudy
5:15 PM 82.4 °F 81.7 °F 55.4 °F 39% 30.10 in 10.0 mi ENE 5.8 mph - N/A   Scattered Clouds
5:35 PM 84.2 °F 83.8 °F 59.0 °F 42% 30.10 in 10.0 mi Variable 6.9 mph - N/A   Mostly Cloudy
5:55 PM 82.4 °F 82.0 °F 57.2 °F 42% 30.10 in 10.0 mi NNE 4.6 mph - N/A   Partly Cloudy
6:15 PM 82.4 °F 81.7 °F 55.4 °F 39% 30.10 in 10.0 mi NNW 4.6 mph - N/A   Clear
6:35 PM 84.2 °F 83.5 °F 57.2 °F 40% 30.10 in 10.0 mi Variable 5.8 mph - N/A   Clear
7:15 PM 82.4 °F 82.5 °F 59.0 °F 45% 30.09 in 10.0 mi WNW 3.5 mph - N/A   Clear
7:35 PM 80.6 °F 81.8 °F 62.6 °F 54% 30.09 in 10.0 mi SSW 3.5 mph - N/A   Mostly Cloudy
7:55 PM 78.8 °F - 62.6 °F 57% 30.09 in 10.0 mi SSE 3.5 mph - N/A   Mostly Cloudy
8:15 PM 78.8 °F - 62.6 °F 57% 30.10 in 10.0 mi South 4.6 mph - N/A   Mostly Cloudy
8:55 PM 75.2 °F - 62.6 °F 65% 30.10 in 10.0 mi SSW 4.6 mph - N/A   Mostly Cloudy
9:15 PM 73.4 °F - 64.4 °F 73% 30.10 in 10.0 mi SSW 3.5 mph - N/A   Partly Cloudy
10:55 PM 69.8 °F - 60.8 °F 73% 30.13 in 10.0 mi Calm Calm - N/A   Partly Cloudy
11:15 PM 71.6 °F - 62.6 °F 73% 30.12 in 10.0 mi Calm Calm - N/A   Mostly Cloudy
11:35 PM 68.0 °F - 59.0 °F 73% 30.12 in 10.0 mi Calm Calm - N/A   Partly Cloudy
11:55 PM 68.0 °F - 60.8 °F 78% 30.13 in 10.0 mi Calm Calm - N/A   Clear